Hourly Data Report for October 31, 2016

All times are specified in Local Standard Time (LST). Add 1 hour to adjust for Daylight Saving Time where and when it is observed.

RANKIN INLET A
NUNAVUT

62°48'38.000" N
92°06'53.000" W
32.30 m
2303405
71083
YRT

Download Data

Hourly Data (October 2016)
Hourly Data Report for October 31, 2016
Temp Definition
°C
Dew Point Temp Definition
°C
Rel Hum Definition
%
Wind Dir Definition
10's deg

Wind Spd Definition
km/h
Visibility Definition
km
Stn Press Definition
kPa
Hmdx Definition


Wind Chill Definition


Weather Definition


TIME
00:00 Legend Double Dagger -9.6 -11.1 89 32 32 16.1 100.56   -19 Cloudy
01:00 Legend Double Dagger -9.5 -11.3 87 31 32 16.1 100.59   -19 LegendNANA
02:00 Legend Double Dagger -9.4 -10.9 89 32 34 16.1 100.62   -19 LegendNANA
03:00 Legend Double Dagger -9.1 -10.5 90 31 30 16.1 100.59   -18 Cloudy
04:00 Legend Double Dagger -9.0 -10.4 90 32 33 16.1 100.60   -19 LegendNANA
05:00 Legend Double Dagger -10.1 -11.7 88 32 29 16.1 100.61   -20 LegendNANA
06:00 Legend Double Dagger -11.3 -13.1 87 32 27 19.3 100.63   -21 Clear
07:00 Legend Double Dagger -11.8 -13.4 88 32 29 16.1 100.63   -22 LegendNANA
08:00 Legend Double Dagger -11.8 -13.6 87 32 28 24.1 100.65   -22 Blowing Snow
09:00 Legend Double Dagger -12.2 -14.1 86 32 27 24.1 100.64   -22 Blowing Snow
10:00 Legend Double Dagger -12.2 -14.2 85 31 22 24.1 100.69   -21 Blowing Snow
11:00 Legend Double Dagger -11.4 -13.4 85 33 30 24.1 100.68   -21 Blowing Snow
12:00 Legend Double Dagger -11.2 -13.4 84 33 30 24.1 100.65   -21 Mainly Clear
13:00 Legend Double Dagger -11.1 -13.3 84 33 26 24.1 100.65   -20 LegendNANA
14:00 Legend Double Dagger -11.0 -13.2 84 33 18 24.1 100.69   -19 LegendNANA
15:00 Legend Double Dagger -11.7 -13.9 84 32 16 24.1 100.70   -19 Mainly Clear
16:00 Legend Double Dagger -12.8 -14.7 86 33 25 24.1 100.71   -22 LegendNANA
17:00 Legend Double Dagger -13.6 -15.5 86 32 14 24.1 100.75   -21 LegendNANA
18:00 Legend Double Dagger -14.2 -16.1 86 33 23 24.1 100.73   -24 Mainly Clear
19:00 Legend Double Dagger -15.1 -16.9 86 33 18 24.1 100.71   -24 LegendNANA
20:00 Legend Double Dagger -15.4 -17.2 86 35 21 24.1 100.70   -25 LegendNANA
21:00 Legend Double Dagger -15.9 -17.9 85 34 22 24.1 100.67   -26 Clear
22:00 Legend Double Dagger -16.7 -18.8 84 34 20 24.1 100.67   -26 LegendNANA
23:00 Legend Double Dagger -17.4 -19.6 83 34 19 24.1 100.69   -27 LegendNANA

Notes on Data Quality.

Legend

  • E = Estimated
  • M = Missing
  • NA = Not Available
  • ‡ = Partner data that is not subject to review by the National Climate Archives
Date modified: